This demonstration page uses our WeatherBlox Daily Observations layout. Learn more.

Left ArrowRight Arrow

Hourly Observations for November 10, 2021

Temp ( °F °C ) Dew Point ( °F °C ) Humidity (%) Winds ( mph kmh ) Pressure ( in mb ) Visibility ( mi km ) Precip ( " mm )
12:53 am 00:53 Clear 43 6.1 18 -7.8 37 37 W 24 39 29.85 1011 10 16 0.00 0.00
1:53 am 01:53 Clear 39 3.9 17 -8.3 41 41 WSW 17 28 29.89 1012 10 16 0.00 0.00
2:53 am 02:53 Clear 35 1.7 17 -8.3 48 48 SW 14 22 29.91 1013 10 16 0.00 0.00
3:53 am 03:53 Clear 37 2.8 17 -8.3 44 44 WSW 17 28 29.91 1013 10 16 0.00 0.00
4:53 am 04:53 Clear 33 0.6 17 -8.3 52 52 SW 17 28 29.94 1014 10 16 0.00 0.00
5:53 am 05:53 Clear 35 1.7 15 -9.4 44 44 SW 18 30 29.96 1015 10 16 0.00 0.00
6:53 am 06:53 Clear 34 1.1 16 -8.9 48 48 SW 20 31 29.98 1015 10 16 0.00 0.00
7:53 am 07:53 Sunny 36 2.2 17 -8.3 46 46 SSW 21 33 29.98 1015 10 16 0.00 0.00
8:53 am 08:53 Sunny 38 3.3 18 -7.8 44 44 SW 18 30 29.99 1016 10 16 0.00 0.00
9:53 am 09:53 Sunny 41 5 19 -7.2 41 41 SW 23 37 29.99 1016 10 16 0.00 0.00
10:53 am 10:53 Sunny 44 6.7 21 -6.1 40 40 WSW 23 37 29.99 1016 10 16 0.00 0.00
11:53 am 11:53 Sunny 46 7.8 21 -6.1 37 37 W 26 43 29.98 1015 10 16 0.00 0.00
12:53 pm 12:53 Sunny 48 8.9 21 -6.1 34 34 W 18 30 29.98 1015 10 16 0.00 0.00
1:53 pm 13:53 Sunny 47 8.3 16 -8.9 29 29 WNW 23 37 30.00 1016 10 16 0.00 0.00
2:53 pm 14:53 Cloudy 44 6.7 18 -7.8 35 35 WNW 24 39 30.03 1017 10 16 0.00 0.00
3:53 pm 15:53 Cloudy 42 5.6 22 -5.6 45 45 WNW 15 24 30.06 1018 10 16 0.00 0.00
4:53 pm 16:53 Cloudy 43 6.1 17 -8.3 35 35 W 16 26 30.07 1018 10 16 0.00 0.00
5:53 pm 17:53 Cloudy 39 3.9 19 -7.2 45 45 WSW 9 15 30.09 1019 10 16 0.00 0.00
6:53 pm 18:53 Cloudy 39 3.9 18 -7.8 43 43 W 15 24 30.11 1020 10 16 0.00 0.00
7:53 pm 19:53 Cloudy 39 3.9 17 -8.3 41 41 W 14 22 30.12 1020 10 16 0.00 0.00
8:53 pm 20:53 Cloudy 37 2.8 16 -8.9 42 42 WNW 15 24 30.14 1021 10 16 0.00 0.00
9:53 pm 21:53 Clear 30 -1.1 15 -9.4 54 54 SW 10 17 30.18 1022 10 16 0.00 0.00
10:53 pm 22:53 Clear 33 0.6 16 -8.9 49 49 WSW 12 19 30.18 1022 10 16 0.00 0.00
11:53 pm 23:53 Clear 30 -1.1 15 -9.4 54 54 WSW 13 20 30.19 1022 10 16 0.00 0.00

Powered by AerisWeather